QPF
0.00 0.00 0.00 0.00 0.00 0.00 0.00 0.00 0.00 0.00 0.02 0.02 0.00 0.00 0.00 0.00 0.01 0.00 0.01 0.19 0.19 0.09 0.00 0.00 0.00 0.00 0.00 0.00 0.00 0.00 0.00 0.00 0.00 0.00 0.00 0.00 0.00 0.00 0.00 0.00 0.00 0.00 0.00 0.00 0.00 0.00 0.00 0.00 0.00
0.00 0.00 0.00 0.00 0.00 0.00 0.00 0.00 0.00 0.00 0.02 0.01 0.00 0.00 0.00 0.00 0.00 0.00 0.03 0.07 0.07 0.07 0.00 0.00 0.00 0.01 0.02 0.01 0.00 0.00 0.00 0.00 0.00 0.00 0.00 0.00 0.00 0.00 0.00 0.00 0.00 0.00 0.00 0.00 0.00 0.00 0.00 0.00 0.00
0.00 0.00 0.00 0.00 0.00 0.00 0.00 0.00 0.00 0.00 0.00 0.00 0.00 0.00 0.00 0.00 0.00 0.00 0.04 0.07 0.05 0.05 0.00 0.00 0.02 0.05 0.08 0.03 0.01 0.00 0.00 0.00 0.00 0.00 0.00 0.00 0.00 0.00 0.00 0.00 0.00 0.00 0.00 0.00 0.00 0.00 0.00 0.00 0.00
0.00 0.00 0.00 0.00 0.00 0.00 0.00 0.01 0.00 0.02 0.03 0.01 0.00 0.00 0.00 0.01 0.04 0.07 0.21 0.21 0.10 0.05 0.00 0.00 0.02 0.08 0.11 0.06 0.02 0.00 0.00 0.00 0.00 0.00 0.00 0.00 0.00 0.00 0.00 0.00 0.00 0.00 0.00 0.00 0.00 0.00 0.00 0.00 0.00
0.00 0.00 0.00 0.00 0.00 0.00 0.00 0.00 0.00 0.01 0.02 0.01 0.00 0.00 0.00 0.00 0.09 0.21 0.44 0.40 0.23 0.13 0.09 0.05 0.12 0.17 0.17 0.07 0.00 0.00 0.00 0.00 0.00 0.00 0.00 0.00 0.00 0.00 0.00 0.00 0.00 0.00 0.00 0.00 0.00 0.00 0.00 0.00 0.00
0.00 0.00 0.00 0.00 0.00 0.00 0.00 0.01 0.02 0.00 0.01 0.00 0.00 0.00 0.01 0.00 0.05 0.34 0.53 0.54 0.45 0.21 0.12 0.17 0.69 0.80 0.23 0.03 0.00 0.00 0.00 0.00 0.00 0.00 0.00 0.00 0.00 0.00 0.00 0.00 0.00 0.00 0.00 0.00 0.00 0.00 0.00 0.00 0.00
0.00 0.00 0.00 0.00 0.00 0.00 0.01 0.03 0.02 0.00 0.00 0.00 0.00 0.01 0.26 0.09 0.08 0.25 0.32 0.33 0.27 0.18 0.19 0.18 0.67 0.56 0.11 0.00 0.00 0.00 0.00 0.00 0.00 0.00 0.00 0.00 0.00 0.00 0.00 0.00 0.00 0.00 0.00 0.00 0.00 0.00 0.00 0.00 0.00
0.00 0.00 0.00 0.00 0.00 0.01 0.02 0.11 0.05 0.01 0.00 0.00 0.00 0.00 0.04 0.39 0.19 0.03 0.02 0.03 0.11 0.26 0.58 0.62 0.62 0.26 0.05 0.00 0.00 0.00 0.00 0.00 0.00 0.00 0.00 0.00 0.00 0.00 0.00 0.00 0.00 0.00 0.00 0.00 0.00 0.00 0.00 0.00 0.00
0.00 0.00 0.00 0.00 0.00 0.02 0.03 0.03 0.02 0.02 0.00 0.00 0.00 0.04 0.23 0.53 0.14 0.03 0.01 0.19 0.32 0.36 0.59 0.58 0.36 0.28 0.01 0.00 0.00 0.00 0.00 0.00 0.00 0.00 0.00 0.00 0.00 0.00 0.00 0.00 0.00 0.00 0.00 0.00 0.00 0.00 0.00 0.00 0.00
0.00 0.00 0.00 0.00 0.00 0.00 0.02 0.03 0.01 0.02 0.01 0.03 0.08 0.19 0.33 0.15 0.14 0.15 0.09 0.08 0.15 0.19 0.43 0.26 0.07 0.02 0.01 0.00 0.00 0.00 0.00 0.00 0.00 0.00 0.00 0.00 0.00 0.00 0.00 0.00 0.00 0.00 0.00 0.00 0.00 0.00 0.00 0.00 0.00
0.00 0.00 0.00 0.00 0.00 0.00 0.01 0.05 0.02 0.01 0.01 0.05 0.37 0.26 0.20 0.20 0.27 0.37 0.56 0.20 0.06 0.10 0.10 0.13 0.07 0.01 0.00 0.00 0.00 0.00 0.00 0.00 0.00 0.00 0.00 0.00 0.00 0.00 0.00 0.00 0.00 0.00 0.00 0.00 0.00 0.00 0.00 0.00 0.00
0.00 0.00 0.00 0.00 0.00 0.00 0.00 0.00 0.01 0.00 0.00 0.01 0.08 0.21 0.16 0.22 0.26 0.15 0.14 0.09 0.04 0.04 0.06 0.02 0.00 0.00 0.00 0.00 0.00 0.00 0.00 0.00 0.00 0.00 0.00 0.00 0.00 0.00 0.00 0.00 0.00 0.00 0.00 0.00 0.00 0.00 0.00 0.00 0.00
0.00 0.00 0.00 0.00 0.02 0.02 0.00 0.00 0.00 0.00 0.00 0.02 0.04 0.07 0.10 0.04 0.06 0.01 0.03 0.01 0.00 0.00 0.00 0.00 0.00 0.00 0.00 0.00 0.00 0.00 0.00 0.00 0.00 0.00 0.00 0.01 0.00 0.00 0.00 0.00 0.00 0.00 0.00 0.00 0.00 0.00 0.00 0.00 0.00
0.00 0.00 0.00 0.00 0.00 0.00 0.00 0.00 0.00 0.00 0.01 0.01 0.02 0.02 0.00 0.00 0.00 0.00 0.01 0.01 0.00 0.00 0.00 0.00 0.00 0.00 0.00 0.00 0.00 0.00 0.00 0.00 0.00 0.00 0.00 0.00 0.00 0.00 0.00 0.00 0.00 0.00 0.00 0.00 0.00 0.00 0.00 0.00 0.00
0.00 0.00 0.00 0.00 0.00 0.00 0.00 0.00 0.00 0.00 0.00 0.00 0.00 0.00 0.00 0.00 0.00 0.00 0.00 0.00 0.00 0.00 0.00 0.00 0.00 0.00 0.00 0.00 0.00 0.00 0.00 0.00 0.00 0.00 0.00 0.00 0.00 0.00 0.00 0.00 0.00 0.00 0.00 0.00 0.00 0.00 0.00 0.00 0.00
0.00 0.00 0.00 0.00 0.00 0.00 0.00 0.00 0.00 0.00 0.00 0.00 0.00 0.00 0.00 0.00 0.00 0.00 0.00 0.00 0.00 0.00 0.00 0.00 0.00 0.00 0.00 0.00 0.00 0.00 0.00 0.00 0.00 0.00 0.00 0.00 0.00 0.00 0.00 0.00 0.00 0.00 0.00 0.00 0.00 0.00 0.00 0.00 0.00
0.00 0.00 0.00 0.00 0.00 0.00 0.00 0.00 0.00 0.01 0.03 0.03 0.01 0.01 0.00 0.00 0.00 0.00 0.00 0.00 0.00 0.01 0.04 0.00 0.00 0.00 0.02 0.01 0.02 0.02 0.01 0.00 0.00 0.00 0.00 0.00 0.00 0.00 0.00 0.00 0.00 0.00 0.00 0.00 0.00 0.00 0.00 0.00 0.00
0.00 0.00 0.00 0.00 0.00 0.00 0.00 0.00 0.00 0.00 0.04 0.26 0.05 0.03 0.02 0.00 0.00 0.00 0.00 0.01 0.00 0.01 0.07 0.04 0.00 0.00 0.09 0.06 0.04 0.01 0.00 0.00 0.00 0.00 0.00 0.00 0.00 0.00 0.00 0.00 0.00 0.00 0.00 0.00 0.00 0.00 0.00 0.00 0.00
0.00 0.00 0.00 0.00 0.00 0.00 0.00 0.00 0.00 0.00 0.00 0.02 0.02 0.06 0.01 0.00 0.00 0.00 0.00 0.00 0.01 0.02 0.03 0.07 0.01 0.03 0.03 0.02 0.00 0.00 0.00 0.00 0.00 0.00 0.00 0.00 0.00 0.00 0.00 0.00 0.00 0.00 0.00 0.00 0.00 0.00 0.00 0.00 0.00
0.00 0.00 0.00 0.00 0.00 0.00 0.00 0.00 0.00 0.00 0.00 0.00 0.01 0.11 0.03 0.00 0.00 0.00 0.00 0.00 0.00 0.01 0.13 0.13 0.03 0.00 0.00 0.00 0.00 0.00 0.00 0.00 0.00 0.00 0.00 0.00 0.00 0.00 0.00 0.00 0.00 0.00 0.00 0.00 0.00 0.00 0.00 0.00 0.00
0.00 0.00 0.00 0.00 0.00 0.00 0.00 0.00 0.00 0.00 0.00 0.00 0.00 0.00 0.00 0.00 0.00 0.00 0.00 0.00 0.00 0.00 0.09 0.08 0.01 0.01 0.00 0.00 0.00 0.00 0.00 0.00 0.00 0.00 0.00 0.00 0.00 0.00 0.00 0.00 0.00 0.00 0.00 0.00 0.00 0.00 0.00 0.00 0.00
0.00 0.00 0.00 0.00 0.00 0.00 0.00 0.00 0.00 0.00 0.00 0.00 0.00 0.00 0.00 0.00 0.00 0.00 0.00 0.00 0.00 0.01 0.07 0.04 0.00 0.00 0.00 0.00 0.00 0.00 0.00 0.00 0.00 0.00 0.00 0.00 0.00 0.00 0.00 0.00 0.00 0.00 0.00 0.00 0.00 0.00 0.00 0.00 0.00
0.00 0.00 0.00 0.00 0.00 0.00 0.00 0.00 0.00 0.00 0.00 0.00 0.00 0.00 0.00 0.00 0.00 0.00 0.00 0.00 0.00 0.00 0.00 0.02 0.00 0.00 0.00 0.00 0.00 0.00 0.00 0.00 0.00 0.00 0.00 0.00 0.00 0.00 0.00 0.00 0.00 0.00 0.00 0.00 0.00 0.00 0.00 0.00 0.00
0.00 0.00 0.00 0.00 0.00 0.00 0.00 0.00 0.00 0.00 0.00 0.00 0.00 0.00 0.00 0.00 0.00 0.00 0.00 0.01 0.00 0.00 0.00 0.00 0.00 0.00 0.00 0.00 0.00 0.00 0.00 0.00 0.00 0.00 0.00 0.00 0.00 0.00 0.00 0.00 0.00 0.00 0.00 0.00 0.00 0.00 0.00 0.00 0.00
0.00 0.00 0.00 0.00 0.00 0.00 0.00 0.01 0.00 0.00 0.00 0.00 0.05 0.00 0.00 0.00 0.00 0.00 0.02 0.02 0.00 0.00 0.00 0.00 0.00 0.00 0.00 0.00 0.00 0.00 0.00 0.00 0.00 0.00 0.00 0.00 0.00 0.00 0.00 0.00 0.00 0.00 0.00 0.00 0.00 0.00 0.00 0.00 0.00
0.00 0.00 0.00 0.00 0.02 0.01 0.02 0.01 0.00 0.00 0.00 0.00 0.00 0.00 0.00 0.00 0.00 0.00 0.00 0.00 0.00 0.00 0.00 0.00 0.00 0.00 0.00 0.00 0.00 0.00 0.00 0.00 0.00 0.00 0.00 0.00 0.00 0.00 0.00 0.00 0.00 0.00 0.00 0.00 0.00 0.00 0.00 0.00 0.00
0.00 0.00 0.00 0.01 0.02 0.01 0.01 0.00 0.00 0.00 0.00 0.00 0.00 0.00 0.00 0.00 0.00 0.00 0.00 0.00 0.00 0.00 0.00 0.00 0.00 0.00 0.00 0.00 0.00 0.00 0.00 0.00 0.00 0.00 0.00 0.00 0.00 0.00 0.00 0.00 0.00 0.00 0.00 0.00 0.00 0.00 0.00 0.00 0.00
0.00 0.00 0.00 0.00 0.00 0.00 0.00 0.00 0.00 0.00 0.00 0.00 0.00 0.00 0.00 0.00 0.00 0.00 0.00 0.00 0.00 0.00 0.00 0.00 0.00 0.00 0.00 0.00 0.00 0.00 0.00 0.00 0.00 0.00 0.00 0.00 0.00 0.00 0.00 0.00 0.00 0.00 0.00 0.00 0.00 0.00 0.00 0.00 0.00
0.00 0.00 0.00 0.00 0.00 0.00 0.00 0.00 0.00 0.00 0.00 0.00 0.00 0.00 0.00 0.00 0.00 0.00 0.00 0.00 0.00 0.00 0.00 0.00 0.00 0.00 0.00 0.00 0.00 0.00 0.00 0.00 0.00 0.00 0.00 0.00 0.00 0.00 0.00 0.00 0.00 0.00 0.00 0.00 0.00 0.00 0.00 0.00 0.00
0.00 0.01 0.02 0.00 0.00 0.00 0.00 0.00 0.00 0.00 0.00 0.00 0.00 0.00 0.00 0.00 0.00 0.00 0.00 0.00 0.00 0.00 0.00 0.00 0.00 0.00 0.00 0.00 0.00 0.00 0.00 0.00 0.00 0.00 0.00 0.00 0.00 0.00 0.00 0.00 0.00 0.00 0.00 0.00 0.00 0.00 0.00 0.00 0.00
MSLP
1012.82 1013.01 1013.49 1013.56 1014.40 1013.54 1012.72 1011.19 1010.18 1008.78 1008.30 1008.09 1007.71 1008.32 1009.79 1010.51 1011.36 1012.99 1013.50 1014.15 1014.56 1015.16 1016.50 1016.56 1017.10 1017.81 1018.16 1018.34 1018.65 1018.75 1019.07 1019.37 1019.64 1020.16 1020.60 1020.71 1020.73 1021.15 1021.31 1021.27 1021.62 1021.61 1021.74 1021.84 1021.88 1021.87 1021.77 1021.66 1021.59
1012.73 1012.95 1013.41 1013.43 1013.76 1013.40 1012.22 1010.41 1010.01 1008.72 1008.32 1008.30 1008.71 1009.40 1009.83 1011.31 1011.85 1012.87 1013.73 1014.83 1014.71 1015.29 1015.69 1017.05 1017.60 1017.95 1018.17 1018.49 1018.65 1019.07 1019.38 1019.65 1019.97 1020.20 1020.61 1021.01 1020.83 1021.40 1021.51 1021.62 1021.72 1021.87 1022.14 1022.20 1022.18 1022.19 1022.14 1021.95 1021.74
1012.68 1012.87 1013.63 1013.32 1012.96 1012.84 1011.54 1010.05 1009.43 1009.19 1009.32 1008.76 1009.90 1010.15 1010.94 1012.38 1012.67 1012.95 1013.65 1014.85 1015.19 1015.72 1016.33 1017.19 1017.78 1017.93 1018.46 1018.55 1018.95 1019.20 1019.85 1019.99 1020.29 1020.34 1020.74 1021.02 1021.23 1021.44 1021.55 1021.65 1022.08 1022.15 1022.44 1022.45 1022.49 1022.41 1022.30 1022.39 1022.10
1012.58 1012.75 1012.96 1012.73 1012.41 1010.70 1010.58 1010.12 1009.30 1009.84 1010.07 1010.33 1010.80 1011.63 1012.24 1012.55 1012.72 1013.26 1014.27 1014.87 1015.34 1015.95 1016.70 1017.02 1017.86 1018.36 1018.45 1018.66 1019.22 1019.56 1019.85 1020.37 1020.52 1020.61 1021.09 1021.17 1021.57 1021.65 1021.84 1021.81 1022.33 1022.52 1022.59 1022.53 1022.65 1022.65 1022.54 1022.54 1022.30
1012.70 1012.68 1012.96 1012.48 1011.39 1009.99 1009.86 1009.70 1009.57 1010.77 1011.19 1011.37 1011.36 1012.39 1012.94 1013.54 1013.39 1013.69 1014.82 1015.89 1015.76 1016.44 1017.08 1017.46 1018.10 1018.57 1018.54 1018.87 1019.20 1019.69 1020.09 1020.51 1020.70 1020.85 1021.19 1021.42 1021.67 1021.91 1021.95 1022.19 1022.53 1022.61 1022.89 1022.85 1022.82 1022.83 1022.71 1022.82 1022.44
1012.69 1012.26 1012.87 1012.31 1011.28 1011.06 1010.99 1010.76 1011.27 1010.81 1011.44 1011.73 1011.78 1012.33 1014.04 1014.52 1014.55 1015.29 1015.73 1016.46 1015.33 1016.51 1017.67 1017.98 1018.84 1018.90 1018.70 1019.07 1019.74 1020.11 1020.34 1020.43 1020.62 1021.03 1021.34 1021.61 1021.78 1021.92 1022.00 1022.33 1022.64 1022.59 1022.63 1022.89 1022.84 1023.01 1022.74 1022.89 1022.71
1012.65 1013.02 1012.77 1012.34 1011.72 1011.73 1012.26 1011.79 1011.29 1012.16 1012.22 1011.99 1012.39 1013.34 1014.96 1015.95 1016.31 1016.42 1016.79 1015.69 1015.95 1017.63 1018.06 1018.93 1019.13 1019.93 1019.40 1019.30 1019.94 1020.33 1020.46 1020.64 1020.80 1021.09 1021.47 1021.45 1021.61 1021.95 1022.13 1022.27 1022.28 1022.55 1022.73 1022.70 1022.89 1022.85 1022.75 1022.76 1022.91
1011.83 1012.78 1012.72 1012.22 1012.08 1012.95 1012.36 1012.02 1012.17 1011.87 1012.76 1012.50 1012.93 1014.01 1015.59 1016.58 1016.77 1017.34 1017.46 1017.67 1018.24 1018.98 1019.36 1019.28 1019.24 1019.71 1019.68 1020.16 1020.12 1020.03 1020.36 1020.68 1021.06 1021.22 1021.24 1021.48 1021.75 1021.91 1022.09 1022.17 1022.15 1022.39 1022.63 1022.77 1022.87 1022.75 1022.77 1022.82 1022.79
1011.35 1012.54 1012.51 1012.29 1012.23 1012.85 1012.61 1012.35 1012.19 1011.89 1012.52 1013.21 1014.35 1014.28 1015.07 1016.06 1016.95 1017.74 1017.95 1018.57 1018.91 1019.59 1019.48 1019.34 1019.11 1019.50 1020.03 1020.30 1020.09 1020.01 1020.31 1020.77 1021.14 1021.24 1021.33 1021.66 1022.09 1022.08 1022.17 1022.33 1022.49 1022.55 1022.58 1022.81 1022.88 1022.73 1023.07 1022.70 1022.74
1011.26 1011.77 1012.00 1011.79 1012.02 1012.43 1012.21 1011.36 1012.12 1013.07 1013.49 1014.74 1014.84 1015.59 1015.86 1016.57 1016.93 1017.90 1018.15 1018.42 1019.31 1019.61 1019.67 1019.49 1019.55 1019.79 1019.74 1019.84 1019.98 1020.20 1020.63 1020.85 1021.11 1021.19 1021.27 1021.53 1021.84 1022.05 1021.93 1022.28 1022.55 1022.65 1023.01 1022.86 1022.73 1022.80 1022.82 1022.95 1022.90
1010.56 1010.91 1011.31 1011.45 1012.21 1012.65 1012.67 1011.84 1011.33 1012.25 1013.56 1014.21 1014.39 1015.00 1016.11 1017.05 1017.40 1017.73 1018.60 1018.36 1018.43 1018.91 1019.28 1019.49 1019.31 1019.41 1019.42 1019.76 1019.97 1020.23 1020.70 1020.93 1021.08 1021.19 1021.23 1021.67 1021.60 1022.11 1022.27 1022.53 1022.89 1022.90 1022.98 1022.96 1023.12 1023.06 1023.19 1023.20 1023.15
1010.22 1009.43 1010.43 1011.36 1011.54 1012.16 1012.09 1011.65 1011.48 1012.27 1012.99 1013.98 1013.82 1014.28 1014.98 1015.34 1016.85 1017.75 1018.24 1018.21 1018.49 1018.59 1018.55 1018.80 1019.04 1019.10 1019.30 1019.66 1020.11 1020.31 1020.55 1020.74 1021.20 1021.47 1021.57 1021.71 1022.24 1022.56 1022.82 1022.99 1023.39 1023.48 1023.46 1023.26 1023.40 1023.35 1023.35 1023.32 1023.20
1009.25 1008.90 1010.27 1010.31 1009.79 1011.51 1011.21 1011.15 1011.55 1012.30 1013.09 1014.51 1014.21 1014.39 1014.50 1014.66 1015.60 1016.67 1017.06 1017.59 1017.84 1018.03 1018.34 1018.64 1018.91 1018.96 1019.37 1019.87 1020.18 1020.19 1020.55 1020.81 1021.21 1021.56 1021.58 1021.93 1022.17 1022.48 1022.68 1023.00 1023.36 1023.52 1023.48 1023.31 1023.51 1023.68 1023.67 1023.62 1023.54
1008.27 1008.47 1009.80 1010.43 1010.90 1010.91 1010.56 1011.16 1011.00 1011.59 1012.48 1013.35 1013.61 1013.74 1013.64 1013.72 1014.58 1015.46 1016.00 1016.75 1017.30 1017.92 1018.33 1018.53 1018.63 1018.85 1019.31 1019.87 1020.03 1020.54 1020.92 1021.34 1021.66 1021.88 1021.74 1022.11 1022.47 1022.90 1023.01 1023.16 1023.60 1023.67 1023.53 1023.55 1023.74 1023.94 1024.12 1024.02 1023.84
1007.98 1008.79 1009.06 1010.29 1010.10 1010.28 1010.29 1011.72 1011.56 1011.57 1012.06 1012.87 1013.32 1013.47 1013.33 1013.38 1013.99 1014.54 1015.14 1015.88 1016.70 1017.61 1018.08 1018.57 1018.69 1019.01 1019.45 1019.93 1020.51 1021.14 1021.36 1021.63 1022.19 1022.26 1022.07 1022.41 1022.74 1022.98 1023.14 1023.54 1023.83 1023.79 1023.67 1023.79 1023.80 1024.10 1023.97 1024.11 1024.10
1008.36 1008.82 1009.13 1008.92 1009.41 1009.79 1010.13 1011.19 1011.65 1011.92 1012.53 1012.95 1013.02 1012.91 1013.08 1013.62 1013.96 1014.34 1014.75 1015.54 1016.02 1016.82 1017.91 1018.38 1018.66 1019.26 1019.75 1020.28 1020.81 1021.28 1021.69 1022.06 1022.19 1022.49 1022.61 1022.53 1022.63 1023.10 1023.26 1023.63 1023.68 1023.81 1023.84 1024.02 1024.17 1024.30 1024.42 1024.55 1024.66
1009.16 1009.32 1009.20 1009.09 1008.67 1009.45 1009.64 1010.95 1011.39 1012.57 1013.20 1013.50 1013.31 1013.11 1013.12 1013.47 1013.77 1014.00 1014.39 1015.15 1015.72 1016.12 1017.02 1018.05 1018.70 1019.47 1019.95 1020.37 1020.92 1021.34 1021.82 1022.15 1022.32 1022.39 1022.58 1022.50 1022.64 1022.96 1023.26 1023.67 1023.78 1023.89 1024.24 1024.37 1024.36 1024.47 1024.57 1024.71 1024.71
1009.57 1009.38 1009.03 1008.85 1008.60 1008.87 1009.83 1010.57 1011.83 1012.44 1012.49 1013.20 1013.87 1014.14 1013.94 1013.65 1013.76 1013.84 1014.13 1014.91 1015.53 1016.11 1017.27 1017.75 1018.55 1019.31 1019.88 1020.35 1020.95 1021.42 1021.97 1022.28 1022.43 1022.51 1022.46 1022.50 1022.71 1023.11 1023.66 1024.09 1024.42 1024.42 1024.52 1024.58 1024.55 1024.72 1024.72 1024.75 1024.70
1009.38 1009.20 1009.04 1008.23 1008.18 1008.57 1009.49 1010.37 1011.44 1012.16 1012.65 1013.40 1013.96 1014.74 1013.78 1013.86 1013.69 1013.71 1014.12 1014.87 1015.78 1016.33 1016.65 1017.39 1018.24 1019.21 1019.70 1020.66 1020.88 1021.53 1022.11 1022.29 1022.67 1022.40 1022.38 1022.82 1023.22 1023.63 1024.05 1024.29 1024.37 1024.43 1024.66 1024.83 1024.80 1024.89 1024.92 1024.89 1024.73
1009.12 1009.19 1008.58 1008.08 1007.83 1008.60 1009.87 1010.37 1010.41 1011.97 1012.39 1012.65 1013.86 1013.27 1013.59 1013.64 1013.67 1013.67 1014.15 1014.83 1015.65 1016.38 1016.93 1017.43 1018.16 1018.80 1019.53 1020.07 1020.48 1020.91 1021.45 1022.11 1022.08 1022.26 1022.76 1023.11 1023.46 1023.67 1023.87 1024.19 1024.50 1024.58 1024.67 1024.80 1024.91 1024.99 1025.13 1025.09 1025.01
1009.18 1009.04 1008.35 1008.35 1008.42 1008.80 1009.36 1010.41 1010.80 1010.53 1010.82 1012.09 1012.05 1012.01 1012.62 1013.30 1013.51 1013.85 1014.11 1015.09 1015.96 1016.73 1017.16 1017.55 1018.20 1018.43 1018.98 1019.58 1020.27 1020.87 1021.40 1022.06 1022.52 1022.90 1023.22 1023.27 1023.32 1023.51 1023.84 1024.24 1024.58 1024.75 1024.82 1024.99 1024.92 1024.90 1025.09 1025.36 1025.20
1008.77 1008.48 1008.88 1009.14 1009.65 1010.24 1010.39 1011.38 1011.48 1010.90 1010.77 1010.80 1011.65 1012.10 1012.36 1012.71 1013.28 1013.65 1014.17 1015.20 1016.14 1017.02 1017.16 1017.59 1017.99 1018.35 1018.77 1019.42 1019.87 1020.45 1021.36 1022.05 1022.48 1022.79 1023.31 1023.67 1023.57 1023.65 1023.90 1024.19 1024.45 1024.72 1024.89 1025.00 1024.89 1024.63 1024.99 1025.15 1025.62
1008.41 1008.35 1008.94 1009.63 1010.53 1011.42 1011.56 1011.68 1011.20 1011.24 1010.53 1010.49 1011.00 1010.96 1011.36 1011.80 1012.37 1013.17 1014.16 1015.09 1015.91 1016.52 1016.96 1017.43 1017.79 1018.24 1018.61 1018.99 1019.31 1020.25 1021.30 1021.86 1022.31 1022.97 1023.44 1023.70 1023.69 1023.81 1024.12 1024.30 1024.39 1024.70 1024.93 1024.98 1024.98 1025.12 1025.17 1025.46 1025.89
1008.34 1008.96 1009.71 1010.62 1011.80 1012.63 1012.07 1011.81 1011.46 1010.73 1009.54 1009.96 1010.01 1010.19 1010.62 1011.69 1012.44 1013.20 1013.96 1014.75 1015.52 1016.40 1016.94 1017.40 1018.01 1018.57 1018.68 1019.04 1019.58 1020.23 1021.16 1022.03 1022.61 1023.14 1023.55 1023.73 1023.94 1024.19 1024.35 1024.45 1024.66 1024.85 1024.94 1025.12 1025.32 1025.49 1025.62 1025.69 1025.77
1009.07 1010.00 1011.48 1012.61 1013.48 1014.12 1013.14 1012.32 1010.47 1009.48 1009.23 1009.43 1009.60 1009.57 1010.95 1011.39 1012.33 1013.27 1014.27 1015.10 1015.81 1016.54 1017.31 1017.71 1018.25 1019.02 1019.26 1019.67 1020.20 1020.73 1021.28 1021.87 1022.60 1023.15 1023.57 1023.81 1024.14 1024.47 1024.60 1024.60 1024.84 1024.99 1025.05 1025.10 1025.21 1025.41 1025.63 1025.58 1025.62
1009.48 1010.43 1012.21 1013.89 1015.18 1014.90 1013.89 1012.30 1009.71 1008.42 1008.48 1009.41 1009.28 1010.16 1011.48 1011.92 1012.62 1013.51 1014.39 1015.08 1016.21 1016.90 1017.42 1017.98 1018.50 1019.16 1019.55 1020.06 1020.63 1021.07 1021.50 1021.99 1022.54 1023.02 1023.40 1023.92 1024.28 1024.55 1024.61 1024.78 1024.89 1024.86 1025.09 1025.13 1024.99 1025.14 1025.42 1025.31 1025.47
1009.48 1010.33 1010.91 1013.77 1015.52 1015.55 1013.87 1011.11 1009.14 1008.49 1008.98 1009.51 1010.08 1011.07 1011.84 1012.07 1012.77 1013.68 1014.57 1015.21 1016.14 1016.92 1017.48 1018.16 1018.72 1019.41 1019.95 1020.49 1020.99 1021.50 1021.83 1022.21 1022.65 1023.08 1023.59 1024.15 1024.38 1024.35 1024.73 1024.90 1024.85 1024.96 1025.03 1024.98 1024.88 1025.04 1025.05 1025.21 1025.25
1009.00 1009.79 1010.97 1012.76 1015.11 1015.26 1013.55 1011.65 1010.22 1009.52 1009.54 1009.53 1010.58 1011.20 1011.49 1011.86 1012.65 1013.55 1014.33 1015.05 1015.77 1016.47 1017.28 1018.24 1018.82 1019.56 1020.23 1020.82 1021.36 1021.88 1022.25 1022.58 1022.84 1023.22 1023.80 1024.18 1024.21 1024.56 1024.83 1024.86 1024.96 1025.08 1024.87 1024.61 1024.63 1024.81 1024.69 1024.92 1024.90
1009.27 1009.59 1010.60 1012.04 1013.87 1014.91 1014.16 1012.52 1009.98 1009.38 1009.15 1009.28 1009.86 1010.21 1010.58 1011.34 1012.17 1013.04 1013.86 1014.57 1015.28 1016.14 1016.91 1017.79 1018.72 1019.51 1020.35 1020.88 1021.49 1022.08 1022.47 1022.74 1022.97 1023.29 1023.62 1023.91 1024.19 1024.37 1024.68 1024.74 1024.96 1025.05 1025.10 1024.95 1024.84 1024.86 1024.48 1024.42 1024.46
1008.50 1009.31 1010.52 1012.39 1014.01 1014.45 1013.96 1012.23 1009.91 1009.09 1008.75 1008.67 1009.03 1009.58 1010.12 1010.59 1011.32 1012.08 1012.96 1013.98 1014.96 1015.77 1016.52 1017.20 1018.10 1019.06 1019.89 1020.55 1021.25 1021.91 1022.34 1022.65 1022.91 1023.21 1023.52 1023.82 1024.19 1024.30 1024.36 1024.47 1024.63 1024.66 1024.80 1024.70 1024.73 1024.88 1024.68 1024.50 1024.35
Thickness
5692 5693 5691 5688 5662 5671 5672 5696 5719 5724 5732 5747 5753 5744 5730 5734 5726 5706 5730 5726 5720 5713 5696 5698 5694 5688 5686 5685 5683 5683 5680 5678 5676 5671 5666 5666 5667 5663 5663 5664 5661 5661 5660 5659 5658 5657 5656 5657 5656
5688 5689 5686 5677 5655 5649 5665 5708 5704 5728 5740 5744 5741 5740 5733 5716 5727 5721 5719 5714 5714 5706 5701 5689 5682 5681 5681 5678 5677 5674 5672 5671 5669 5668 5664 5660 5664 5659 5660 5660 5659 5657 5654 5653 5653 5652 5651 5652 5652
5684 5686 5668 5658 5653 5653 5672 5713 5714 5726 5730 5736 5725 5730 5725 5708 5716 5717 5718 5709 5703 5696 5688 5681 5677 5678 5671 5671 5668 5667 5663 5663 5661 5662 5659 5658 5658 5659 5660 5659 5654 5653 5650 5649 5648 5648 5647 5644 5644
5679 5675 5674 5657 5657 5691 5697 5711 5719 5715 5716 5721 5715 5703 5714 5719 5717 5714 5702 5696 5696 5688 5682 5680 5671 5668 5665 5662 5658 5659 5658 5655 5654 5656 5653 5654 5653 5656 5655 5655 5649 5647 5647 5647 5644 5642 5641 5639 5639
5674 5669 5649 5657 5674 5706 5712 5713 5715 5697 5698 5706 5708 5698 5699 5703 5707 5706 5691 5683 5685 5679 5676 5673 5670 5660 5653 5649 5653 5654 5653 5650 5650 5652 5651 5651 5651 5651 5652 5649 5646 5645 5640 5639 5638 5636 5635 5632 5634
5655 5666 5643 5650 5678 5697 5693 5696 5693 5698 5697 5699 5703 5700 5683 5689 5688 5687 5684 5677 5676 5672 5667 5665 5659 5654 5641 5647 5646 5645 5647 5649 5650 5650 5649 5648 5649 5649 5648 5644 5640 5640 5638 5634 5632 5629 5631 5627 5627
5652 5647 5645 5657 5674 5683 5672 5688 5693 5682 5686 5695 5698 5680 5675 5670 5669 5672 5673 5674 5673 5666 5664 5650 5650 5639 5641 5645 5642 5640 5644 5647 5651 5650 5647 5649 5648 5645 5643 5641 5640 5637 5633 5631 5626 5625 5625 5624 5620
5662 5650 5647 5661 5665 5646 5673 5679 5683 5691 5679 5694 5690 5667 5662 5662 5665 5661 5663 5665 5661 5651 5648 5639 5647 5637 5637 5637 5639 5644 5646 5648 5647 5647 5649 5648 5644 5643 5641 5639 5638 5634 5628 5625 5621 5620 5619 5618 5616
5672 5634 5643 5656 5657 5654 5666 5669 5681 5690 5680 5679 5667 5670 5669 5663 5661 5653 5652 5649 5647 5644 5647 5651 5644 5639 5635 5638 5642 5647 5649 5647 5646 5647 5648 5643 5640 5638 5635 5633 5630 5626 5625 5621 5618 5616 5613 5614 5611
5656 5643 5652 5668 5664 5658 5665 5679 5670 5668 5662 5654 5659 5656 5657 5655 5657 5647 5646 5644 5633 5636 5635 5639 5638 5637 5640 5640 5645 5648 5647 5646 5646 5646 5644 5642 5638 5634 5634 5629 5625 5622 5617 5617 5615 5611 5609 5607 5605
5664 5656 5662 5667 5664 5662 5660 5673 5682 5671 5653 5657 5658 5656 5649 5644 5644 5645 5635 5637 5640 5638 5635 5634 5640 5642 5645 5644 5647 5647 5644 5643 5643 5642 5641 5635 5636 5631 5628 5625 5619 5616 5612 5610 5605 5604 5600 5598 5597
5658 5681 5675 5666 5672 5667 5664 5677 5679 5667 5661 5660 5669 5665 5660 5658 5643 5639 5634 5641 5640 5640 5645 5644 5643 5648 5648 5647 5645 5644 5643 5642 5639 5637 5634 5635 5629 5624 5620 5617 5610 5606 5605 5604 5600 5597 5592 5589 5587
5670 5683 5671 5674 5677 5667 5680 5677 5672 5664 5661 5654 5663 5664 5662 5664 5658 5651 5650 5647 5649 5649 5648 5647 5646 5648 5646 5643 5641 5643 5641 5641 5637 5631 5632 5628 5624 5620 5615 5610 5604 5600 5598 5598 5593 5588 5586 5583 5579
5688 5687 5670 5670 5666 5671 5678 5674 5679 5676 5673 5665 5666 5665 5671 5672 5667 5662 5656 5651 5650 5649 5648 5649 5650 5648 5644 5642 5643 5640 5638 5633 5630 5627 5628 5622 5617 5610 5608 5605 5599 5595 5594 5590 5585 5581 5576 5574 5571
5686 5674 5681 5665 5672 5676 5678 5662 5666 5679 5679 5671 5669 5672 5674 5673 5669 5667 5669 5661 5657 5653 5650 5647 5648 5647 5645 5642 5637 5633 5631 5628 5622 5622 5621 5614 5608 5606 5602 5597 5591 5589 5587 5582 5578 5571 5569 5566 5561
5675 5674 5657 5682 5680 5680 5680 5652 5668 5673 5670 5666 5670 5677 5678 5672 5670 5671 5671 5666 5664 5658 5648 5646 5647 5643 5639 5637 5633 5628 5623 5620 5620 5614 5609 5608 5604 5597 5595 5591 5587 5580 5577 5572 5567 5564 5559 5554 5548
5662 5644 5660 5668 5688 5681 5678 5654 5671 5664 5667 5668 5668 5674 5673 5670 5671 5673 5673 5671 5665 5663 5658 5650 5645 5637 5634 5632 5626 5621 5617 5613 5610 5607 5603 5600 5599 5596 5591 5582 5575 5570 5565 5562 5558 5553 5548 5542 5539
5643 5651 5656 5662 5680 5685 5672 5665 5663 5664 5668 5668 5658 5656 5663 5669 5671 5675 5672 5670 5668 5662 5653 5649 5643 5636 5632 5628 5622 5616 5611 5607 5603 5600 5598 5596 5593 5586 5577 5569 5564 5561 5557 5553 5548 5543 5538 5534 5529
5664 5659 5658 5674 5688 5684 5672 5667 5667 5665 5664 5660 5659 5652 5669 5666 5674 5678 5675 5667 5663 5659 5654 5651 5644 5636 5633 5622 5618 5611 5605 5602 5596 5596 5595 5588 5580 5571 5566 5562 5559 5554 5548 5542 5537 5533 5527 5522 5518
5663 5658 5661 5681 5693 5687 5666 5666 5679 5663 5660 5664 5656 5663 5666 5669 5670 5675 5673 5667 5663 5658 5652 5649 5642 5638 5630 5623 5618 5612 5605 5599 5598 5595 5585 5578 5572 5566 5562 5557 5550 5544 5539 5533 5526 5520 5514 5508 5502
5664 5657 5668 5672 5687 5690 5680 5665 5669 5683 5687 5671 5671 5673 5674 5671 5672 5672 5673 5664 5658 5651 5647 5645 5639 5636 5629 5624 5614 5609 5603 5596 5590 5583 5577 5571 5566 5561 5555 5549 5542 5534 5527 5520 5515 5509 5503 5494 5488
5651 5676 5671 5674 5664 5643 5670 5629 5651 5671 5679 5683 5673 5668 5670 5671 5672 5672 5669 5659 5653 5645 5644 5639 5635 5631 5627 5621 5615 5610 5601 5593 5586 5581 5573 5565 5561 5556 5548 5541 5531 5523 5516 5509 5503 5497 5489 5482 5471
5664 5681 5676 5675 5661 5649 5653 5646 5650 5659 5669 5678 5674 5676 5672 5676 5676 5671 5665 5658 5652 5648 5644 5638 5634 5629 5626 5621 5617 5606 5595 5587 5579 5570 5564 5558 5553 5544 5534 5526 5519 5510 5502 5495 5488 5481 5474 5466 5456
5685 5676 5670 5662 5646 5611 5650 5642 5634 5653 5675 5675 5685 5686 5685 5673 5668 5666 5665 5659 5654 5647 5641 5636 5630 5624 5621 5616 5609 5601 5590 5579 5570 5561 5552 5544 5537 5529 5522 5514 5505 5497 5489 5481 5473 5466 5458 5450 5443
5671 5652 5618 5612 5598 5598 5641 5636 5647 5672 5681 5682 5684 5690 5682 5677 5668 5662 5655 5648 5644 5639 5633 5629 5625 5616 5612 5604 5596 5588 5580 5571 5560 5550 5541 5534 5525 5516 5508 5501 5492 5484 5477 5469 5460 5452 5444 5437 5430
5656 5648 5608 5598 5583 5611 5629 5625 5655 5685 5691 5682 5687 5682 5672 5669 5664 5658 5651 5646 5638 5633 5627 5623 5618 5610 5603 5595 5585 5576 5569 5560 5551 5542 5533 5522 5512 5503 5496 5487 5478 5472 5463 5457 5449 5440 5431 5424 5415
5659 5641 5656 5611 5606 5596 5622 5655 5676 5676 5671 5671 5667 5665 5662 5662 5657 5654 5647 5644 5636 5628 5622 5615 5609 5602 5593 5584 5574 5564 5557 5549 5539 5530 5519 5508 5500 5491 5482 5473 5467 5458 5450 5443 5437 5428 5419 5410 5401
5664 5667 5633 5621 5599 5602 5628 5643 5636 5658 5663 5667 5655 5659 5661 5661 5655 5650 5646 5641 5635 5627 5617 5607 5600 5592 5582 5573 5562 5552 5543 5535 5527 5518 5506 5496 5488 5477 5468 5461 5452 5443 5438 5432 5424 5415 5406 5396 5386
5648 5644 5652 5643 5614 5596 5587 5614 5666 5664 5667 5663 5658 5662 5663 5660 5654 5648 5642 5639 5633 5624 5613 5602 5591 5582 5572 5562 5550 5539 5529 5522 5514 5505 5495 5486 5476 5466 5456 5447 5438 5430 5421 5414 5407 5399 5392 5382 5372
5667 5649 5642 5596 5618 5597 5589 5610 5668 5670 5672 5671 5666 5665 5663 5663 5658 5652 5644 5636 5626 5617 5608 5598 5585 5574 5563 5553 5540 5528 5518 5510 5501 5492 5484 5475 5465 5455 5445 5436 5427 5420 5409 5400 5392 5382 5374 5365 5356